STARLINK-30236, 57300

Orbit data source: Space-Track

STARLINK-30236, 57300 is a payload satellite owned by SpaceX/Seattle (US) in LEO that was launched on Mon, 10 Jul 2023 UTC via an FALCON 9 launch vehicle from the Air Force Eastern Test Range (AFETR). Payload-class satellites include a variety of spacecraft equipped with specific instruments for various scientific and technological missions. These include communications satellites like Starlink; space stations such as the ISS; scientific satellites like the Hubble; Earth observation satellites from companies like Planet Labs, Umbra, and HawkEye 360; GPS; miniature CubeSats for education and research; and military/defense satellites.

Loading next visibility...
Identifier
57300, 2023-096L
Orbit
LEO
Country
Flag of USUS
Related business
Manufacturer
SpaceX/Seattle
Mission
Operational Commercial Communications
Bus & Motor
STARLINK V2M, Unknown motor
Mass
730 kg wet, ~700 kg dry
Launch date (UTC)
2023-07-10 (2 years ago)
Launch vehicle
FALCON 9
Launch site
Air Force Eastern Test Range (AFETR)
Object type
Payload
Rocket body
Debris
Shape & HBR
Box + 2 Pan, 14.5 m
Radar Cross Section
33.884 m², Large (>1 m²)

Expand to show TLE details & history
Last TLE update: 20 hours ago

TLE from 20 hours ago
0 STARLINK-30236
1 57300U 23096L   25241.21432417  .00000922  00000-0  83291-4 0  9993
2 57300  43.0024 189.0561 0000966 266.6512  93.4220 15.02537426118701
Epoch: 2025-08-29T05:08Z
TLE epoch observation values (Epoch: 2025-08-29T05:08:37.608Z)
Latitude
Longitude
134.23322°
Altitude
558.893 km
Speed
7.584 km/s
True Right ascension
12h 36m 13s
True Declination
0° 00' 00"
Sunlit
Object was in daylight at epoch
Visualization orbit readout
Latitude
Unknown
Longitude
Unknown
Altitude
Unknown
Speed
Unknown
Apparent Right ascension
Unknown
Apparent Declination
Unknown
Sunlit
N/A
Visualization observer readout
Local Sidereal Time
17:10:41
Azimuth
Unknown
Elevation
Unknown
Doppler factor
Unknown
Orbital elements
Apogee altitude
561.669 km
Perigee altitude
560.328 km
Semi-major axis
6,939.136 km
Eccentricity
0.0001
Inclination
43.0024°
RAAN
189.0561°
Arg. of periapsis
266.6512°
True anomaly
93.43305°
Mean anomaly
93.422°
Eccentric anomaly
93.42752°
Mean motion
3.75479 °/min
Orbital period
95.88 mins
BSTAR
0.000083291
Loading maneuver chart data...
Computing Atmospheric mass density...
Loading historical data...
Loading historical data...
Loading historical data...
Loading historical data...
Loading historical data...
Loading historical data...
Loading historical data...

Documentation

Showing up to 5 results
|